| time (UTC) | temp F | wind direction | speed MPH | gust MPH | rain 1hr in | rain 24hr in | rain mn in | humidity % | barometer mb |
| 20260506091024 | 68 | 200 | 1.0 | 2.0 | 0.00 | 0.06 | 0.00 | 49 | 1012.9 |
| 20260506090025 | 67 | 128 | 1.0 | 2.0 | 0.00 | 0.06 | 0.00 | 51 | 1012.8 |
| 20260506085025 | 66 | 144 | 0.0 | 2.0 | 0.00 | 0.06 | 0.00 | 51 | 1012.8 |
| 20260506084025 | 65 | 33 | 1.0 | 2.0 | 0.00 | 0.06 | 0.00 | 52 | 1012.7 |
| 20260506083025 | 65 | 66 | 1.0 | 1.0 | 0.00 | 0.06 | 0.00 | 54 | 1012.7 |
| 20260506082025 | 65 | 187 | 1.0 | 3.0 | 0.00 | 0.06 | 0.00 | 56 | 1012.7 |
| 20260506081024 | 65 | 71 | 1.0 | 2.0 | 0.00 | 0.06 | 0.00 | 58 | 1012.7 |
| 20260506073024 | 62 | 223 | 1.0 | 3.0 | 0.00 | 0.06 | 0.00 | 59 | 1012.6 |
| 20260506072024 | 62 | 243 | 1.0 | 2.0 | 0.00 | 0.06 | 0.00 | 60 | 1012.6 |
| 20260506071025 | 61 | 160 | 1.0 | 1.0 | 0.00 | 0.06 | 0.00 | 60 | 1013.0 |
| 20260506062016 | 58 | 10 | 1.0 | 3.0 | 0.00 | 0.06 | 0.00 | 64 | 1012.6 |
| 20260506061016 | 57 | 149 | 1.0 | 1.0 | 0.00 | 0.06 | 0.00 | 67 | 1011.8 |
| 20260506051017 | 54 | 210 | 0.0 | 1.0 | 0.00 | 0.06 | 0.00 | 69 | 1011.3 |
| 20260506045017 | 53 | 0.0 | 0.0 | 0.00 | 0.06 | 0.00 | 70 | 1011.6 | |
| 20260506044018 | 53 | 0.0 | 0.0 | 0.00 | 0.06 | 0.00 | 70 | 1011.6 | |
| 20260506043018 | 52 | 0.0 | 0.0 | 0.00 | 0.06 | 0.00 | 71 | 1011.5 | |
| 20260506042058 | 51 | 339 | 0.0 | 0.0 | 0.00 | 0.06 | 0.00 | 71 | 1011.5 |
| 20260506041018 | 51 | 0.0 | 0.0 | 0.00 | 0.06 | 0.00 | 71 | 1011.3 | |
| 20260506040019 | 51 | 194 | 0.0 | 0.0 | 0.00 | 0.06 | 0.00 | 72 | 1011.3 |
| 20260506035019 | 51 | 248 | 1.0 | 2.0 | 0.00 | 0.06 | 0.00 | 72 | 1011.8 |
| 20260506034019 | 51 | 196 | 1.0 | 2.0 | 0.00 | 0.06 | 0.00 | 71 | 1011.8 |
| 20260506033019 | 51 | 210 | 0.0 | 2.0 | 0.00 | 0.06 | 0.00 | 71 | 1012.8 |
| 20260506032018 | 51 | 183 | 1.0 | 2.0 | 0.00 | 0.06 | 0.00 | 71 | 1012.8 |
| 20260506031038 | 51 | 223 | 1.0 | 3.0 | 0.00 | 0.06 | 0.00 | 71 | 1012.7 |
| 20260506030019 | 51 | 243 | 1.0 | 2.0 | 0.00 | 0.06 | 0.00 | 71 | 1012.9 |
| 20260506025018 | 51 | 194 | 1.0 | 2.0 | 0.00 | 0.06 | 0.00 | 70 | 1013.0 |
| 20260506024017 | 51 | 173 | 1.0 | 3.0 | 0.00 | 0.06 | 0.00 | 69 | 1013.0 |
| 20260506023018 | 51 | 219 | 0.0 | 0.0 | 0.00 | 0.06 | 0.00 | 69 | 1013.4 |
| 20260506022037 | 52 | 236 | 0.0 | 2.0 | 0.00 | 0.06 | 0.00 | 69 | 1013.5 |
| 20260506021018 | 52 | 261 | 0.0 | 0.0 | 0.00 | 0.06 | 0.00 | 68 | 1013.6 |
| 20260506020018 | 52 | 239 | 0.0 | 2.0 | 0.00 | 0.06 | 0.00 | 68 | 1013.6 |
| 20260506015018 | 53 | 239 | 1.0 | 2.0 | 0.00 | 0.06 | 0.00 | 68 | 1013.6 |
| 20260506014019 | 53 | 234 | 1.0 | 2.0 | 0.00 | 0.06 | 0.00 | 68 | 1013.6 |
| 20260506013019 | 53 | 180 | 1.0 | 5.0 | 0.00 | 0.06 | 0.00 | 68 | 1013.8 |
| 20260506012019 | 54 | 249 | 1.0 | 1.0 | 0.00 | 0.06 | 0.00 | 69 | 1013.9 |
| 20260506011020 | 54 | 224 | 2.0 | 4.0 | 0.00 | 0.06 | 0.00 | 68 | 1013.9 |
| 20260506010020 | 54 | 223 | 2.0 | 4.0 | 0.00 | 0.06 | 0.00 | 69 | 1013.8 |
| 20260506005020 | 54 | 204 | 2.0 | 4.0 | 0.00 | 0.06 | 0.00 | 69 | 1013.8 |
| 20260506004021 | 55 | 226 | 3.0 | 4.0 | 0.00 | 0.06 | 0.00 | 69 | 1013.8 |
| 20260506003021 | 55 | 243 | 2.0 | 3.0 | 0.00 | 0.06 | 0.00 | 69 | 1014.0 |
| 20260506002022 | 55 | 225 | 3.0 | 4.0 | 0.00 | 0.06 | 0.00 | 69 | 1014.0 |
| 20260506001022 | 55 | 235 | 2.0 | 6.0 | 0.00 | 0.06 | 0.00 | 69 | 1014.2 |
| 20260506000022 | 55 | 254 | 2.0 | 2.0 | 0.00 | 0.06 | 0.00 | 70 | 1014.1 |
| 20260505235023 | 55 | 239 | 2.0 | 4.0 | 0.00 | 0.06 | 0.00 | 70 | 1014.3 |
| 20260505234022 | 56 | 231 | 1.0 | 3.0 | 0.00 | 0.06 | 0.00 | 69 | 1014.3 |
| 20260505233023 | 56 | 199 | 0.0 | 1.0 | 0.00 | 0.06 | 0.00 | 68 | 1014.4 |
| 20260505232103 | 56 | 228 | 0.0 | 1.0 | 0.00 | 0.06 | 0.00 | 68 | 1014.4 |
| 20260505231023 | 57 | 242 | 0.0 | 0.0 | 0.00 | 0.06 | 0.00 | 68 | 1014.3 |
| 20260505230023 | 57 | 222 | 0.0 | 2.0 | 0.00 | 0.06 | 0.00 | 68 | 1014.3 |
| 20260505225023 | 57 | 257 | 0.0 | 0.0 | 0.00 | 0.06 | 0.00 | 67 | 1014.1 |
| 20260505224044 | 58 | 166 | 0.0 | 0.0 | 0.00 | 0.06 | 0.00 | 67 | 1014.1 |
| 20260505223025 | 58 | 222 | 0.0 | 0.0 | 0.00 | 0.06 | 0.00 | 66 | 1014.2 |
| 20260505222025 | 58 | 246 | 0.0 | 0.0 | 0.00 | 0.06 | 0.00 | 67 | 1014.2 |
| 20260505221024 | 58 | 158 | 1.0 | 3.0 | 0.00 | 0.06 | 0.00 | 67 | 1014.5 |
| 20260505220044 | 58 | 168 | 1.0 | 4.0 | 0.00 | 0.06 | 0.00 | 66 | 1014.4 |
| 20260505215023 | 59 | 179 | 1.0 | 2.0 | 0.00 | 0.06 | 0.06 | 66 | 1014.6 |
| 20260505214022 | 59 | 209 | 1.0 | 3.0 | 0.00 | 0.06 | 0.06 | 65 | 1014.6 |
| 20260505213022 | 59 | 208 | 0.0 | 2.0 | 0.00 | 0.06 | 0.06 | 65 | 1014.7 |
| 20260505212023 | 58 | 259 | 0.0 | 1.0 | 0.00 | 0.06 | 0.06 | 64 | 1014.7 |
| 20260505211044 | 58 | 227 | 1.0 | 3.0 | 0.00 | 0.06 | 0.06 | 64 | 1014.4 |
| 20260505210024 | 58 | 223 | 1.0 | 2.0 | 0.00 | 0.06 | 0.06 | 65 | 1014.3 |
| 20260505205024 | 58 | 223 | 1.0 | 2.0 | 0.00 | 0.06 | 0.06 | 65 | 1014.4 |
| 20260505204024 | 58 | 246 | 2.0 | 4.0 | 0.00 | 0.06 | 0.06 | 65 | 1014.4 |
| 20260505203024 | 59 | 266 | 2.0 | 4.0 | 0.00 | 0.06 | 0.06 | 64 | 1013.3 |
| 20260505202023 | 59 | 283 | 2.0 | 4.0 | 0.00 | 0.06 | 0.06 | 65 | 1013.3 |
| 20260505201024 | 59 | 309 | 2.0 | 3.0 | 0.00 | 0.06 | 0.06 | 64 | 1012.3 |
| 20260505200024 | 59 | 306 | 1.0 | 3.0 | 0.00 | 0.06 | 0.06 | 64 | 1012.3 |
| 20260505195025 | 60 | 296 | 1.0 | 4.0 | 0.00 | 0.06 | 0.06 | 63 | 1012.2 |
| 20260505194045 | 60 | 330 | 0.0 | 2.0 | 0.00 | 0.06 | 0.06 | 62 | 1012.2 |
| 20260505193025 | 60 | 272 | 1.0 | 1.0 | 0.00 | 0.06 | 0.06 | 61 | 1011.7 |
| 20260505192025 | 61 | 261 | 2.0 | 3.0 | 0.00 | 0.06 | 0.06 | 61 | 1011.7 |
| 20260505191016 | 61 | 275 | 1.0 | 5.0 | 0.00 | 0.06 | 0.06 | 61 | 1011.4 |
| 20260505190016 | 61 | 333 | 1.0 | 1.0 | 0.00 | 0.06 | 0.06 | 61 | 1011.4 |
| 20260505185017 | 0 | 0.0 | 0.0 | 0.00 | 0.06 | 0.06 | |||
| 20260505184017 | 62 | 0.0 | 0.0 | 0.00 | 0.06 | 0.06 | 60 | 1011.4 | |
| 20260505183017 | 62 | 248 | 3.0 | 4.0 | 0.00 | 0.06 | 0.06 | 60 | 1011.0 |
| 20260505182037 | 63 | 264 | 3.0 | 4.0 | 0.00 | 0.06 | 0.06 | 60 | 1011.1 |
| 20260505181017 | 63 | 293 | 3.0 | 4.0 | 0.00 | 0.06 | 0.06 | 59 | 1011.1 |
| 20260505180017 | 63 | 265 | 4.0 | 4.0 | 0.00 | 0.06 | 0.06 | 59 | 1011.2 |
| 20260505175038 | 64 | 282 | 4.0 | 6.0 | 0.00 | 0.06 | 0.06 | 59 | 1011.0 |
| 20260505174020 | 64 | 253 | 3.0 | 4.0 | 0.00 | 0.06 | 0.06 | 59 | 1011.0 |
| 20260505173020 | 63 | 278 | 3.0 | 3.0 | 0.00 | 0.06 | 0.06 | 59 | 1011.0 |
| 20260505172019 | 64 | 247 | 5.0 | 6.0 | 0.00 | 0.06 | 0.06 | 58 | 1011.0 |
| 20260505171040 | 64 | 256 | 5.0 | 6.0 | 0.00 | 0.06 | 0.06 | 58 | 1011.1 |
| 20260505170040 | 64 | 256 | 4.0 | 9.0 | 0.00 | 0.06 | 0.06 | 57 | 1010.8 |
| 20260505165020 | 64 | 248 | 4.0 | 7.0 | 0.00 | 0.06 | 0.06 | 57 | 1010.8 |
| 20260505164020 | 65 | 279 | 5.0 | 6.0 | 0.00 | 0.06 | 0.06 | 56 | 1010.9 |
| 20260505163019 | 65 | 279 | 5.0 | 8.0 | 0.00 | 0.06 | 0.06 | 55 | 1010.8 |
| 20260505162040 | 65 | 293 | 5.0 | 5.0 | 0.00 | 0.06 | 0.06 | 55 | 1010.8 |
| 20260505161021 | 65 | 293 | 6.0 | 7.0 | 0.00 | 0.06 | 0.06 | 55 | 1010.8 |
| 20260505153020 | 66 | 270 | 4.0 | 5.0 | 0.06 | 0.06 | 0.06 | 58 | 1010.5 |
| 20260505152020 | 66 | 296 | 5.0 | 7.0 | 0.06 | 0.06 | 0.06 | 60 | 1010.5 |
| 20260505151040 | 67 | 307 | 3.0 | 9.0 | 0.06 | 0.06 | 0.06 | 58 | 1011.0 |
| 20260505125020 | 81 | 135 | 3.0 | 4.0 | 0.00 | 0.00 | 0.00 | 34 | 1012.2 |
| 20260505124040 | 80 | 174 | 2.0 | 8.0 | 0.00 | 0.00 | 0.00 | 35 | 1012.2 |
| 20260505123021 | 79 | 105 | 1.0 | 4.0 | 0.00 | 0.00 | 0.00 | 34 | 1012.4 |
| 20260505122042 | 79 | 81 | 2.0 | 2.0 | 0.00 | 0.00 | 0.00 | 34 | 1012.4 |
| 20260505121023 | 80 | 62 | 1.0 | 3.0 | 0.00 | 0.00 | 0.00 | 35 | 1012.6 |
| 20260505120043 | 79 | 206 | 2.0 | 4.0 | 0.00 | 0.00 | 0.00 | 35 | 1012.6 |
| 20260505115024 | 78 | 131 | 1.0 | 5.0 | 0.00 | 0.00 | 0.00 | 37 | 1012.8 |
| 20260505114025 | 77 | 44 | 2.0 | 2.0 | 0.00 | 0.00 | 0.00 | 36 | 1012.7 |
| 20260505113025 | 76 | 342 | 2.0 | 5.0 | 0.00 | 0.00 | 0.00 | 37 | 1013.0 |
| 20260505112025 | 75 | 57 | 1.0 | 2.0 | 0.00 | 0.00 | 0.00 | 36 | 1013.0 |
| 20260505111016 | 75 | 32 | 2.0 | 4.0 | 0.00 | 0.00 | 0.00 | 36 | 1013.1 |
| 20260505102016 | 73 | 63 | 2.0 | 2.0 | 0.00 | 0.00 | 0.00 | 43 | 1013.5 |
| 20260505101017 | 73 | 21 | 1.0 | 4.0 | 0.00 | 0.00 | 0.00 | 44 | 1013.7 |
| 20260505100018 | 73 | 333 | 2.0 | 3.0 | 0.00 | 0.00 | 0.00 | 45 | 1013.8 |
| 20260505095018 | 73 | 234 | 2.0 | 6.0 | 0.00 | 0.00 | 0.00 | 46 | 1013.8 |
| 20260505094018 | 72 | 175 | 1.0 | 2.0 | 0.00 | 0.00 | 0.00 | 47 | 1013.7 |
| 20260505093019 | 71 | 218 | 1.0 | 5.0 | 0.00 | 0.00 | 0.00 | 47 | 1014.2 |
| 20260505092019 | 71 | 98 | 1.0 | 2.0 | 0.00 | 0.00 | 0.00 | 47 | 1014.2 |